Simultaneous Nadir Overpasses (SNOs) Predictions

Prediction of SNOs between GOES-16 and METOP-A Satellite Orbit:

Table of predicted SNOs for the next 14.0 days since TLE Epoch: 12/31/2021
Index Date Time (GOES-16) GOES-16 Lat,Lon METOP-A Lat,Lon Distance(km) Time Diff (sec)
1 01/01/2022 00:51:37 0.05, -75.17 0.38, -73.80 157.46 80
2 01/01/2022 13:10:30 -0.04, -75.19 0.47, -77.70 285.25 80
3 01/04/2022 00:53:37 0.04, -75.17 0.27, -74.14 117.26 80
4 01/04/2022 13:12:18 -0.04, -75.18 0.59, -77.99 319.75 80
5 01/07/2022 00:55:38 0.03, -75.18 0.21, -74.49 79.54 80
6 01/07/2022 13:14:08 -0.03, -75.20 0.63, -78.30 351.95 80
7 01/10/2022 00:57:37 0.02, -75.21 0.09, -74.82 44.25 80
8 01/10/2022 13:15:56 -0.02, -75.23 0.73, -78.59 382.32 80
9 01/12/2022 12:42:12 -0.03, -75.26 -0.97, -70.98 487.84 80
10 01/13/2022 00:59:35 0.03, -75.25 0.04, -75.16 10.48 80
11 01/13/2022 13:17:46 -0.02, -75.28 0.76, -78.90 411.74 80
